OKA1302 ZGGG-ZSJN

Flight info

Callsign OKA1302
Flight time N/A
Altitude 35100
Route LMN9 LMN G471 PLT A599 TUPGA W135 DOGVI A470 DPX A593 ABTUB ABTUB6W
Aircraft B739/M-SDE2E3FGHIRWXY/LB1

Departure

Time 2026-05-05 01:45
Airport Guangzhou Baiyun International Airport (ZGGG)

Arrival

Time N/A
Airport Jinan Yaoqiang International Airport (ZSJN)
Time Latitude Longitude Altitude Speed Heading
2026-05-05 01:29 23.37995 113.30132 50 ft 0 kts 194°
2026-05-05 01:39 23.38009 113.30136 50 ft 2 kts 194°
2026-05-05 01:39 23.38024 113.30140 50 ft 2 kts 194°
2026-05-05 01:39 23.38032 113.30143 50 ft 2 kts 194°
2026-05-05 01:39 23.38048 113.30144 50 ft 2 kts 171°
2026-05-05 01:40 23.38062 113.30140 50 ft 2 kts 154°
2026-05-05 01:40 23.38075 113.30130 50 ft 2 kts 135°
2026-05-05 01:40 23.38085 113.30117 50 ft 2 kts 117°
2026-05-05 01:40 23.38088 113.30108 50 ft 1 kts 105°
2026-05-05 01:41 23.38090 113.30102 50 ft 0 kts 104°
2026-05-05 01:41 23.38086 113.30115 50 ft 8 kts 104°
2026-05-05 01:42 23.38073 113.30176 50 ft 7 kts 103°
2026-05-05 01:42 23.38057 113.30227 50 ft 8 kts 129°
2026-05-05 01:42 23.37957 113.30235 50 ft 16 kts 194°
2026-05-05 01:42 23.37855 113.30250 50 ft 15 kts 119°
2026-05-05 01:43 23.37817 113.30355 50 ft 14 kts 125°
2026-05-05 01:43 23.37714 113.30366 50 ft 22 kts 192°
2026-05-05 01:43 23.37608 113.30402 50 ft 14 kts 111°
2026-05-05 01:43 23.37593 113.30508 50 ft 13 kts 75°
2026-05-05 01:44 23.37636 113.30551 50 ft 0 kts 15°
2026-05-05 01:45 23.37825 113.30604 50 ft 78 kts 15°
2026-05-05 01:45 23.38697 113.30841 74 ft 170 kts 14°
2026-05-05 01:45 23.39990 113.31211 488 ft 204 kts 14°
2026-05-05 01:45 23.41463 113.31605 1045 ft 235 kts 15°
2026-05-05 01:46 23.43081 113.32137 2164 ft 242 kts 18°
2026-05-05 01:46 23.44688 113.32659 3165 ft 246 kts 16°
2026-05-05 01:46 23.46348 113.33160 4155 ft 249 kts 14°
2026-05-05 01:46 23.48037 113.33652 5052 ft 255 kts 13°
2026-05-05 01:47 23.49774 113.34150 5942 ft 261 kts 12°
2026-05-05 01:47 23.51559 113.34659 6841 ft 266 kts 11°
2026-05-05 01:47 23.53352 113.35170 7726 ft 271 kts 11°
2026-05-05 01:47 23.55184 113.35691 8599 ft 275 kts 10°
2026-05-05 01:48 23.57080 113.36137 9479 ft 278 kts
2026-05-05 01:48 23.58989 113.36495 10327 ft 281 kts
2026-05-05 01:48 23.60919 113.37060 11208 ft 290 kts 19°
2026-05-05 01:48 23.62600 113.38367 11993 ft 305 kts 46°
2026-05-05 01:49 23.63700 113.40428 12431 ft 330 kts 70°
2026-05-05 01:49 23.64309 113.42946 12764 ft 354 kts 76°
2026-05-05 01:49 23.64879 113.45676 13070 ft 378 kts 77°
2026-05-05 01:49 23.65483 113.48579 13306 ft 403 kts 76°
2026-05-05 01:50 23.66125 113.51643 13561 ft 425 kts 76°
2026-05-05 01:50 23.66800 113.54853 13822 ft 445 kts 76°
2026-05-05 01:50 23.67493 113.58234 14295 ft 457 kts 79°
2026-05-05 01:50 23.67821 113.61684 14950 ft 463 kts 88°
2026-05-05 01:51 23.67792 113.65252 15683 ft 467 kts 93°
2026-05-05 01:51 23.67635 113.68781 16406 ft 471 kts 94°
2026-05-05 01:51 23.67446 113.72372 16994 ft 477 kts 95°
2026-05-05 01:51 23.67257 113.76022 17655 ft 481 kts 94°
2026-05-05 01:52 23.67078 113.79683 18241 ft 486 kts 94°
2026-05-05 01:52 23.66901 113.83423 18711 ft 494 kts 94°
2026-05-05 01:52 23.66736 113.87171 19294 ft 498 kts 93°
2026-05-05 01:52 23.66576 113.90962 20012 ft 498 kts 93°
2026-05-05 01:53 23.66419 113.94765 20805 ft 496 kts 93°
2026-05-05 01:53 23.66260 113.98591 21469 ft 498 kts 93°
2026-05-05 01:53 23.66102 114.02403 22035 ft 503 kts 92°
2026-05-05 01:53 23.65942 114.06239 22512 ft 508 kts 92°
2026-05-05 01:54 23.65780 114.10111 22999 ft 514 kts 93°
2026-05-05 01:54 23.65616 114.14006 23487 ft 518 kts 93°
2026-05-05 01:54 23.65531 114.17949 23939 ft 523 kts 89°
2026-05-05 01:54 23.65796 114.21951 24359 ft 529 kts 82°
2026-05-05 01:55 23.66530 114.25895 24805 ft 532 kts 72°
2026-05-05 01:55 23.67799 114.29734 25276 ft 533 kts 64°
2026-05-05 01:55 23.69420 114.33359 25676 ft 536 kts 57°
2026-05-05 01:55 23.71497 114.36774 26211 ft 532 kts 47°
2026-05-05 01:56 23.73944 114.39719 26823 ft 526 kts 39°
2026-05-05 01:56 23.76672 114.42389 27572 ft 518 kts 33°
2026-05-05 01:56 23.79474 114.44823 28220 ft 514 kts 31°
2026-05-05 01:56 23.82354 114.47194 28786 ft 514 kts 30°
2026-05-05 01:57 23.85222 114.49515 29372 ft 514 kts 29°
2026-05-05 01:57 23.88112 114.51851 30029 ft 512 kts 29°
2026-05-05 01:57 23.90962 114.54166 30759 ft 508 kts 29°
2026-05-05 01:57 23.93782 114.56471 31529 ft 502 kts 29°
2026-05-05 01:58 23.96613 114.58788 32084 ft 501 kts 29°
2026-05-05 01:58 23.99410 114.61083 32564 ft 502 kts 29°
2026-05-05 01:58 24.02211 114.63384 33085 ft 502 kts 29°
2026-05-05 01:58 24.05052 114.65723 33680 ft 501 kts 30°
2026-05-05 01:59 24.07811 114.67999 34286 ft 498 kts 30°
2026-05-05 01:59 24.10603 114.70305 34789 ft 497 kts 30°
2026-05-05 01:59 24.13360 114.72583 35178 ft 497 kts 30°
2026-05-05 01:59 24.16148 114.74886 35168 ft 499 kts 30°
2026-05-05 02:00 24.21632 114.79428 35162 ft 490 kts 30°
2026-05-05 02:00 24.27259 114.83695 35164 ft 483 kts 22°
2026-05-05 02:01 24.30298 114.85249 35165 ft 472 kts 11°
2026-05-05 02:01 24.33435 114.86284 35170 ft 466 kts
2026-05-05 02:01 24.39749 114.87897 35174 ft 464 kts
2026-05-05 02:02 24.46087 114.89433 35168 ft 465 kts
2026-05-05 02:02 24.52477 114.90995 35163 ft 466 kts
2026-05-05 02:03 24.58968 114.92593 35158 ft 467 kts
2026-05-05 02:03 24.65375 114.94177 35167 ft 467 kts
2026-05-05 02:04 24.71775 114.95756 35160 ft 467 kts
2026-05-05 02:04 24.78201 114.97343 35161 ft 466 kts
2026-05-05 02:05 24.84648 114.98910 35163 ft 468 kts
2026-05-05 02:05 24.91054 115.00468 35161 ft 466 kts
2026-05-05 02:06 24.97500 115.02039 35164 ft 465 kts
2026-05-05 02:06 25.03827 115.03581 35160 ft 465 kts
2026-05-05 02:07 25.10253 115.05148 35155 ft 467 kts
2026-05-05 02:07 25.16622 115.06704 35156 ft 467 kts
2026-05-05 02:08 25.22998 115.08265 35156 ft 467 kts
2026-05-05 02:08 25.29379 115.09740 35152 ft 459 kts 359°
2026-05-05 02:09 25.35625 115.09776 35154 ft 435 kts 340°
2026-05-05 02:09 25.41323 115.07866 35147 ft 420 kts 328°
2026-05-05 02:10 25.46659 115.05200 35145 ft 417 kts 326°
2026-05-05 02:10 25.51971 115.02446 35138 ft 419 kts 326°
2026-05-05 02:11 25.57301 114.99689 35149 ft 419 kts 326°
2026-05-05 02:11 25.62637 114.96936 35149 ft 421 kts 326°
2026-05-05 02:12 25.70785 114.93120 35148 ft 431 kts 335°
2026-05-05 02:12 25.73815 114.92600 35155 ft 445 kts 347°
2026-05-05 02:13 25.76947 114.92609 35156 ft 453 kts 353°
2026-05-05 02:13 25.83317 114.93958 35155 ft 480 kts 14°
2026-05-05 02:14 25.89221 114.97678 35146 ft 499 kts 28°
2026-05-05 02:14 25.94401 115.03049 35146 ft 512 kts 40°
2026-05-05 02:15 25.99215 115.08958 35140 ft 512 kts 41°
2026-05-05 02:15 26.04031 115.14867 35138 ft 513 kts 41°
2026-05-05 02:16 26.08901 115.20751 35137 ft 514 kts 40°
2026-05-05 02:16 26.13759 115.26576 35137 ft 513 kts 40°
2026-05-05 02:17 26.18637 115.32412 35141 ft 512 kts 40°
2026-05-05 02:17 26.23520 115.38254 35149 ft 513 kts 40°
2026-05-05 02:18 26.28405 115.44106 35154 ft 512 kts 40°
2026-05-05 02:18 26.33301 115.49974 35157 ft 514 kts 40°
2026-05-05 02:19 26.38185 115.55838 35159 ft 514 kts 40°
2026-05-05 02:19 26.43098 115.61746 35153 ft 515 kts 40°
2026-05-05 02:20 26.47971 115.67610 35149 ft 514 kts 41°
2026-05-05 02:20 26.52876 115.73521 35153 ft 516 kts 41°
2026-05-05 02:21 26.57759 115.79415 35154 ft 516 kts 41°
2026-05-05 02:21 26.62645 115.85320 35157 ft 516 kts 41°
2026-05-05 02:22 26.67540 115.91244 35153 ft 517 kts 41°
2026-05-05 02:22 26.72445 115.97186 35154 ft 519 kts 41°
2026-05-05 02:23 26.77374 116.03166 35152 ft 519 kts 41°
2026-05-05 02:23 26.82301 116.09155 35156 ft 519 kts 41°
2026-05-05 02:24 26.87220 116.15143 35167 ft 520 kts 41°
2026-05-05 02:24 26.92129 116.21126 35160 ft 520 kts 41°
2026-05-05 02:25 26.97026 116.27048 35160 ft 518 kts 41°
2026-05-05 02:25 27.01985 116.33016 35167 ft 520 kts 41°
2026-05-05 02:26 27.06913 116.38958 35169 ft 519 kts 41°
2026-05-05 02:26 27.11835 116.44906 35179 ft 520 kts 41°
2026-05-05 02:27 27.16801 116.50919 35153 ft 519 kts 41°
2026-05-05 02:27 27.21712 116.56869 35164 ft 519 kts 40°
2026-05-05 02:28 27.26739 116.62766 35171 ft 519 kts 39°
2026-05-05 02:28 27.31773 116.68588 35176 ft 520 kts 40°
2026-05-05 02:29 27.36832 116.74461 35162 ft 520 kts 40°
2026-05-05 02:29 27.41873 116.80341 35171 ft 520 kts 40°
2026-05-05 02:30 27.46904 116.86221 35165 ft 519 kts 40°
2026-05-05 02:30 27.51914 116.92084 35180 ft 520 kts 40°
2026-05-05 02:31 27.57011 116.98003 35185 ft 518 kts 40°
2026-05-05 02:31 27.62078 117.03851 35173 ft 520 kts 40°
2026-05-05 02:32 27.67117 117.09676 35171 ft 520 kts 40°
2026-05-05 02:32 27.72210 117.15579 35169 ft 519 kts 40°
2026-05-05 02:33 27.77267 117.21452 35175 ft 519 kts 40°
2026-05-05 02:33 27.82341 117.27350 35181 ft 523 kts 40°
2026-05-05 02:34 27.87420 117.33269 35167 ft 520 kts 40°
2026-05-05 02:34 27.92485 117.39178 35173 ft 520 kts 40°
2026-05-05 02:35 27.97542 117.45085 35166 ft 522 kts 40°
2026-05-05 02:35 28.02609 117.51013 35158 ft 522 kts 40°
2026-05-05 02:36 28.07675 117.56950 35167 ft 523 kts 40°
2026-05-05 02:36 28.12727 117.62872 35164 ft 523 kts 40°
2026-05-05 02:37 28.17785 117.68814 35154 ft 521 kts 41°
2026-05-05 02:37 28.22866 117.74792 35143 ft 521 kts 41°
2026-05-05 02:38 28.27924 117.80746 35148 ft 523 kts 41°
2026-05-05 02:38 28.32987 117.86716 35152 ft 523 kts 41°
2026-05-05 02:39 28.38005 117.92646 35154 ft 522 kts 41°
2026-05-05 02:39 28.43063 117.98643 35153 ft 524 kts 42°
2026-05-05 02:40 28.48020 118.04707 35152 ft 523 kts 43°
2026-05-05 02:40 28.52988 118.10852 35160 ft 523 kts 43°
2026-05-05 02:41 28.57942 118.16977 35163 ft 524 kts 42°
2026-05-05 02:41 28.62882 118.23082 35159 ft 524 kts 43°
2026-05-05 02:42 28.67840 118.29215 35154 ft 525 kts 43°
2026-05-05 02:42 28.72809 118.35366 35159 ft 525 kts 42°
2026-05-05 02:43 28.77782 118.41542 35159 ft 524 kts 42°
2026-05-05 02:43 28.82707 118.47653 35160 ft 523 kts 43°
2026-05-05 02:44 28.87693 118.53845 35163 ft 525 kts 43°
2026-05-05 02:44 28.92667 118.60031 35161 ft 534 kts 43°
2026-05-05 02:45 28.97708 118.66318 35158 ft 535 kts 43°
2026-05-05 02:45 29.02733 118.72598 35162 ft 536 kts 43°
2026-05-05 02:46 29.07798 118.78936 35169 ft 536 kts 43°
2026-05-05 02:46 29.12832 118.85246 35174 ft 534 kts 43°
2026-05-05 02:47 29.17866 118.91563 35174 ft 536 kts 43°
2026-05-05 02:47 29.22877 118.97863 35171 ft 536 kts 43°
2026-05-05 02:48 29.27878 119.04161 35171 ft 535 kts 44°
2026-05-05 02:48 29.32787 119.10602 35173 ft 537 kts 48°
2026-05-05 02:49 29.37000 119.17777 35172 ft 542 kts 59°
2026-05-05 02:49 29.40264 119.25595 35172 ft 544 kts 65°
2026-05-05 02:50 29.43265 119.33624 35170 ft 544 kts 65°
2026-05-05 02:50 29.46230 119.41634 35173 ft 544 kts 65°
2026-05-05 02:51 29.49217 119.49663 35176 ft 544 kts 65°
2026-05-05 02:51 29.52229 119.57519 35180 ft 543 kts 62°
2026-05-05 02:52 29.56373 119.64783 35182 ft 533 kts 42°
2026-05-05 02:52 29.62013 119.70351 35179 ft 525 kts 31°
2026-05-05 02:53 29.68031 119.75119 35188 ft 523 kts 28°
2026-05-05 02:53 29.74135 119.79781 35182 ft 525 kts 28°
2026-05-05 02:54 29.80251 119.84480 35175 ft 524 kts 28°
2026-05-05 02:54 29.86310 119.89166 35165 ft 525 kts 28°
2026-05-05 02:55 29.92420 119.93911 35154 ft 524 kts 28°
2026-05-05 02:55 29.98461 119.98613 35140 ft 525 kts 28°
2026-05-05 02:56 30.04568 120.03378 35137 ft 522 kts 28°
2026-05-05 02:56 30.10580 120.08075 35136 ft 522 kts 28°
2026-05-05 02:57 30.16631 120.12811 35085 ft 522 kts 28°
2026-05-05 02:57 30.19658 120.15181 34851 ft 525 kts 28°
2026-05-05 02:57 30.22723 120.17479 34619 ft 521 kts 25°
2026-05-05 02:57 30.25953 120.19400 34374 ft 511 kts 16°
2026-05-05 02:58 30.29303 120.20550 34138 ft 497 kts
2026-05-05 02:58 30.32694 120.20922 33940 ft 486 kts 354°
2026-05-05 02:58 30.36105 120.20942 33702 ft 478 kts 348°
2026-05-05 02:58 30.39340 120.20284 33450 ft 465 kts 334°
2026-05-05 02:59 30.42297 120.18925 33249 ft 456 kts 327°
2026-05-05 02:59 30.45162 120.17294 33029 ft 452 kts 322°
2026-05-05 02:59 30.47782 120.15365 32801 ft 445 kts 317°
2026-05-05 02:59 30.50314 120.13238 32580 ft 444 kts 316°
2026-05-05 03:00 30.52795 120.11098 32358 ft 446 kts 316°
2026-05-05 03:00 30.55284 120.08953 32163 ft 446 kts 316°
2026-05-05 03:00 30.57790 120.06802 32133 ft 447 kts 316°
2026-05-05 03:01 30.62866 120.02465 32131 ft 451 kts 316°
2026-05-05 03:01 30.67938 119.98148 32137 ft 452 kts 317°
2026-05-05 03:02 30.73048 119.93804 32133 ft 453 kts 317°
2026-05-05 03:02 30.78145 119.89464 32133 ft 452 kts 317°
2026-05-05 03:03 30.83213 119.85116 32138 ft 451 kts 317°
2026-05-05 03:03 30.88282 119.80756 32141 ft 453 kts 317°
2026-05-05 03:04 30.93358 119.76386 32143 ft 452 kts 317°
2026-05-05 03:04 30.98442 119.72005 32138 ft 452 kts 317°
2026-05-05 03:05 31.03525 119.67619 32136 ft 453 kts 317°
2026-05-05 03:05 31.08596 119.63238 32138 ft 453 kts 318°
2026-05-05 03:06 31.13696 119.58826 32134 ft 453 kts 318°
2026-05-05 03:06 31.18807 119.54400 32132 ft 452 kts 318°
2026-05-05 03:07 31.23850 119.50026 32126 ft 451 kts 319°
2026-05-05 03:07 31.28909 119.45629 32123 ft 451 kts 319°
2026-05-05 03:08 31.33958 119.41237 32118 ft 452 kts 319°
2026-05-05 03:08 31.39008 119.36839 32118 ft 451 kts 319°
2026-05-05 03:09 31.44074 119.32420 32115 ft 451 kts 319°
2026-05-05 03:09 31.49109 119.28023 32117 ft 451 kts 319°
2026-05-05 03:10 31.54177 119.23589 32116 ft 451 kts 319°
2026-05-05 03:10 31.59182 119.19189 32112 ft 451 kts 319°
2026-05-05 03:11 31.64230 119.14706 32115 ft 451 kts 319°
2026-05-05 03:11 31.69027 119.10011 32112 ft 449 kts 315°
2026-05-05 03:12 31.73722 119.05112 32106 ft 450 kts 315°
2026-05-05 03:12 31.78438 119.00239 32105 ft 450 kts 316°
2026-05-05 03:13 31.83579 118.95996 32108 ft 457 kts 329°
2026-05-05 03:13 31.89492 118.93038 32099 ft 459 kts 335°
2026-05-05 03:14 31.95504 118.90355 32096 ft 460 kts 336°
2026-05-05 03:14 32.01500 118.87686 32093 ft 459 kts 336°
2026-05-05 03:15 32.07514 118.84994 32090 ft 459 kts 336°
2026-05-05 03:15 32.13511 118.82298 31789 ft 459 kts 336°
2026-05-05 03:15 32.16494 118.80956 31564 ft 457 kts 336°
2026-05-05 03:16 32.19477 118.79610 31344 ft 456 kts 336°
2026-05-05 03:16 32.22451 118.78268 31129 ft 456 kts 336°
2026-05-05 03:16 32.25425 118.76923 30916 ft 456 kts 336°
2026-05-05 03:16 32.28380 118.75588 30692 ft 453 kts 337°
2026-05-05 03:17 32.31300 118.74268 30457 ft 441 kts 337°
2026-05-05 03:17 32.34164 118.72973 30217 ft 428 kts 337°
2026-05-05 03:17 32.36915 118.71727 30092 ft 412 kts 337°
2026-05-05 03:17 32.39547 118.70534 30091 ft 395 kts 337°
2026-05-05 03:18 32.42049 118.69398 30086 ft 378 kts 336°
2026-05-05 03:18 32.44465 118.68299 30087 ft 362 kts 336°
2026-05-05 03:18 32.46786 118.67242 30087 ft 348 kts 336°
2026-05-05 03:18 32.49026 118.66222 30086 ft 333 kts 336°
2026-05-05 03:19 32.53180 118.64326 30089 ft 306 kts 336°
2026-05-05 03:19 32.55135 118.63433 30090 ft 292 kts 336°
2026-05-05 03:19 32.57003 118.62579 30083 ft 279 kts 336°
2026-05-05 03:20 32.58821 118.61768 29604 ft 282 kts 336°
2026-05-05 03:20 32.60694 118.60924 28901 ft 293 kts 338°
2026-05-05 03:20 32.62711 118.60208 27956 ft 311 kts 344°
2026-05-05 03:20 32.64809 118.59779 27964 ft 294 kts 351°
2026-05-05 03:21 32.66780 118.59642 28177 ft 274 kts 355°